Theta_e
334 335 334 336 336 335 334 332 333 333 333 334 333 334 333 335 335 335 335 334 334 334 333 334 334 335 334 334 338 338 337 337 337 336 336 336 334 333 334 333 335 335
332 334 335 333 334 334 334 334 334 333 334 334 333 333 334 335 334 335 334 333 334 333 334 334 335 334 334 332 333 333 334 335 336 335 336 336 336 335 335 335 335 336
338 336 334 333 332 334 334 335 335 334 333 334 334 334 334 335 334 334 333 334 332 333 333 333 333 333 332 331 333 335 335 335 334 335 336 335 335 335 334 336 336 337
337 336 332 333 334 334 335 334 334 335 335 333 333 334 334 335 334 334 332 333 332 332 333 333 332 332 331 331 333 334 336 336 336 336 336 335 336 334 333 336 335 333
335 335 334 334 335 335 335 333 333 333 334 333 334 333 333 333 334 331 331 331 332 332 332 332 332 331 331 331 331 330 333 336 336 335 332 335 336 335 336 335 334 334
337 336 334 333 334 333 332 333 332 333 333 333 332 330 331 331 331 330 330 330 330 330 330 330 329 330 330 330 331 330 331 329 332 333 331 332 331 333 333 335 334 333
336 335 333 331 332 332 332 333 334 333 333 334 332 330 330 330 330 330 329 329 328 328 328 327 327 329 330 331 329 329 329 329 328 328 326 327 328 330 328 330 333 330
336 335 332 332 331 332 332 331 332 332 334 333 332 331 329 329 329 330 330 328 328 327 327 326 327 327 329 329 327 328 328 328 328 327 326 326 327 326 327 328 332 332
335 335 333 332 332 332 331 331 332 333 333 332 331 331 330 329 328 330 329 327 328 328 327 327 325 326 329 328 327 327 326 327 327 326 326 326 326 326 324 327 330 332
334 333 333 331 331 331 331 331 332 332 331 332 330 330 329 330 329 328 327 326 326 327 326 325 324 324 327 327 325 326 325 326 326 327 326 326 325 325 323 325 327 331
333 333 332 332 330 329 331 332 332 331 332 331 330 329 328 328 326 327 326 324 326 325 324 323 323 321 323 325 327 327 326 325 325 325 326 325 324 324 327 325 326 331
333 332 331 332 331 330 330 330 331 331 331 331 329 327 328 326 325 326 323 322 324 324 322 322 320 321 322 323 324 326 327 326 326 325 325 324 324 323 324 326 327 328
331 331 332 333 332 330 330 329 329 331 330 330 328 327 325 325 325 324 323 322 322 323 322 321 321 320 321 322 324 324 325 325 325 326 325 325 324 323 324 325 325 325
326 329 333 333 331 330 330 330 331 331 329 329 326 325 323 322 321 321 323 322 323 322 322 321 320 320 320 322 322 324 324 325 325 325 324 325 325 324 325 324 326 326
326 328 330 331 331 331 331 330 330 329 327 325 324 323 323 322 322 321 320 320 319 321 320 321 323 322 313 313 318 322 323 322 323 322 323 323 324 324 324 324 324 326
326 328 328 330 327 328 329 329 327 326 325 323 322 323 323 323 322 322 320 320 320 321 323 328 323 317 302 296 297 310 323 321 322 322 321 322 323 322 323 323 324 325
327 328 325 328 328 328 328 327 324 323 321 321 321 321 322 321 321 320 321 321 321 324 325 322 316 305 294 293 294 294 311 325 321 321 320 321 321 322 321 321 323 322
325 325 326 327 328 327 327 326 326 324 323 324 324 325 325 324 323 323 326 325 323 321 319 316 309 295 292 293 293 293 297 315 325 322 321 321 321 321 320 320 321 324
317 316 316 317 320 322 323 322 322 322 322 322 322 325 325 324 324 323 320 318 317 315 312 310 306 293 292 292 293 292 293 304 322 323 320 320 322 322 321 321 321 322
317 316 315 315 316 316 317 317 318 318 320 322 323 324 324 323 322 320 318 316 314 312 308 306 301 294 292 291 292 291 291 297 327 322 321 321 322 322 323 323 322 322
311 311 310 311 313 314 314 313 313 314 314 316 318 320 321 321 321 320 318 316 315 312 308 305 300 291 291 291 292 292 291 296 326 323 322 322 322 322 322 323 322 323
308 309 310 309 310 311 310 310 311 312 312 315 314 314 313 314 316 317 315 314 313 311 309 306 303 291 291 291 291 291 292 318 324 324 323 323 325 324 324 323 323 323
306 307 309 309 310 310 309 309 309 309 311 310 309 309 309 310 310 311 312 313 311 310 308 306 303 294 291 291 291 290 299 320 323 322 321 322 324 326 325 326 327 328
305 305 304 305 306 305 305 305 306 307 307 308 308 307 306 306 306 307 307 308 309 309 309 306 303 296 291 291 291 291 296 314 319 320 322 322 323 325 325 325 323 313
304 304 304 304 304 304 305 305 305 305 306 308 310 309 307 306 305 305 305 306 307 307 308 307 303 298 291 291 291 291 297 309 315 316 317 319 320 319 321 321 320 305
302 303 303 303 303 303 303 304 305 306 306 306 308 306 306 306 306 306 305 305 306 307 308 310 307 300 295 291 291 292 291 302 313 313 313 313 314 313 314 316 317 311
Wind_Speed
4 7 8 8 7 8 8 9 8 8 7 7 6 6 7 6 8 6 5 5 4 4 4 4 4 4 4 4 5 3 4 5 5 5 5 5 5 4 5 6 5 3
12 12 7 7 7 7 7 7 8 7 6 6 6 6 6 7 7 6 5 5 5 5 4 3 4 4 4 5 5 5 5 5 6 5 5 6 5 6 5 5 6 5
10 9 9 9 8 9 8 8 8 7 6 6 6 5 6 6 6 5 5 4 5 5 5 4 3 3 3 3 4 4 5 6 5 6 5 6 5 4 5 7 6 5
9 8 9 10 9 10 8 8 8 7 7 6 6 5 6 5 5 6 6 5 5 6 5 5 4 3 4 3 3 4 5 5 6 6 6 6 6 7 7 5 5 6
11 9 8 8 9 10 9 9 9 8 7 6 6 6 6 6 6 6 6 6 7 6 6 5 4 3 2 2 3 4 4 3 4 5 5 5 6 5 4 5 5 6
8 9 9 9 9 10 10 9 9 9 8 7 7 6 5 6 6 6 7 6 6 6 6 6 4 3 4 3 3 3 3 4 4 4 5 4 3 5 4 4 6 6
8 9 9 9 10 11 10 9 8 8 8 7 6 6 6 6 6 7 7 6 7 6 7 6 5 4 3 2 4 3 4 4 3 4 5 4 4 4 4 5 5 6
10 9 9 9 11 11 9 9 9 8 8 8 7 6 7 6 7 6 6 6 6 8 7 5 4 4 4 4 4 4 4 4 5 6 6 5 3 4 4 3 4 5
9 9 10 11 12 11 10 9 7 8 8 8 7 6 6 6 6 6 6 6 6 7 7 5 5 5 4 4 4 4 4 3 3 3 2 3 4 4 5 5 4 5
9 10 11 11 11 10 11 10 9 8 8 8 8 6 6 5 6 6 6 5 6 6 6 6 5 5 4 4 5 6 4 4 3 2 4 4 4 5 4 4 5 4
13 11 10 9 10 10 11 10 11 9 8 8 8 7 7 6 6 6 5 6 6 6 7 6 5 5 5 4 4 3 5 4 4 5 4 4 2 2 2 1 4 6
10 10 8 8 8 9 10 11 9 9 9 8 8 7 7 7 7 6 6 6 7 6 6 6 5 4 4 4 5 4 3 4 4 3 4 3 3 4 3 1 3 5
8 7 6 7 8 9 9 9 10 9 9 9 8 7 7 6 6 6 5 6 7 6 5 5 5 4 4 4 5 5 4 4 4 4 4 3 4 4 2 2 2 4
7 1 2 8 8 9 11 11 10 9 9 8 8 8 7 7 7 6 6 5 5 4 5 4 4 4 3 1 3 5 3 5 4 4 4 3 3 2 1 1 1 2
10 6 1 7 8 9 10 10 10 9 9 9 8 7 6 7 6 6 6 5 5 5 5 5 4 8 7 6 8 3 4 3 3 4 5 5 4 4 2 3 1 2
9 6 5 7 9 8 9 10 10 9 8 9 8 7 7 6 7 6 6 5 5 5 4 6 6 4 8 11 6 5 7 3 2 2 3 4 5 6 4 4 3 4
9 9 11 9 10 10 9 10 10 9 9 9 8 7 7 7 6 7 7 6 6 6 6 6 6 6 13 12 12 11 7 6 3 3 4 3 5 4 4 4 3 5
8 10 9 9 11 11 11 10 9 9 9 8 7 6 5 5 5 6 9 9 8 8 7 6 6 9 11 11 11 12 8 6 4 2 3 3 4 4 4 4 5 4
12 11 10 9 10 9 7 8 9 10 9 8 8 6 6 6 7 8 8 8 7 8 7 7 6 10 9 9 9 9 10 7 6 3 3 4 1 3 3 2 4 4
10 11 10 9 9 8 9 9 9 9 8 7 7 7 6 6 8 8 7 7 6 7 7 6 7 9 11 11 9 9 9 7 7 1 3 1 2 1 0 2 2 2
11 10 9 7 7 7 8 8 9 8 8 7 7 7 7 7 5 6 6 6 5 6 7 7 6 10 11 12 12 11 11 8 4 1 3 2 2 2 3 2 2 2
10 9 8 8 8 9 9 9 9 9 8 6 7 6 6 5 6 6 7 7 6 6 6 7 7 13 12 13 13 13 13 6 3 2 2 2 1 2 3 3 4 4
8 8 8 8 8 9 9 8 7 7 6 5 7 6 6 6 5 5 5 6 6 6 6 6 7 10 13 13 14 15 11 6 2 3 3 3 3 2 3 3 2 2
9 9 8 8 9 9 8 7 7 6 6 4 6 6 6 5 5 5 5 6 6 6 5 6 6 9 13 13 14 16 12 7 5 3 2 3 3 3 3 3 7 10
9 9 8 8 7 8 7 7 6 6 4 4 3 4 5 5 4 4 5 5 5 4 3 5 6 7 12 13 14 15 12 7 6 5 4 2 3 3 2 4 6 11
8 8 8 7 7 6 7 7 6 4 4 3 1 3 4 3 4 4 5 5 4 3 3 4 7 7 9 12 13 14 14 9 5 5 4 5 4 5 5 5 2 9
Wind_Direction
175 258 204 165 160 159 155 155 158 158 164 158 161 159 158 155 156 163 163 167 174 181 177 172 172 174 182 192 196 213 184 186 187 187 198 206 184 214 229 211 207 193
181 217 185 167 158 155 155 151 152 158 155 156 151 152 147 145 152 158 156 168 170 180 180 172 183 187 189 192 196 198 206 173 193 190 192 206 205 191 210 230 213 195
178 180 177 163 154 153 150 148 150 156 150 153 141 149 141 145 152 155 162 166 168 158 173 183 185 212 211 213 173 205 213 177 193 209 193 206 195 215 200 207 212 189
167 186 169 163 153 149 148 150 154 153 147 147 147 144 144 148 156 155 159 165 149 160 171 176 186 200 221 196 182 207 219 199 197 196 194 201 201 187 215 198 209 178
172 168 162 151 149 149 154 157 157 147 147 145 139 137 149 152 161 161 161 173 151 170 169 173 184 190 234 216 202 205 215 213 197 203 200 201 207 208 191 201 200 205
165 159 159 153 158 157 160 155 153 147 149 147 141 147 146 161 168 159 168 173 161 172 163 176 179 185 216 200 205 201 215 219 201 221 218 217 219 207 204 201 199 201
170 162 162 162 159 162 161 154 150 154 153 143 147 147 152 172 170 166 170 173 172 174 172 180 173 189 198 195 195 169 196 220 206 220 223 198 206 216 211 218 219 205
170 157 165 163 163 158 162 155 156 156 148 149 154 151 165 180 173 169 170 182 169 180 179 164 168 183 182 198 177 167 179 200 191 202 218 172 202 210 187 215 220 216
163 158 167 163 160 162 166 157 156 154 158 154 156 161 172 185 168 171 176 182 171 188 168 159 181 163 188 191 165 166 179 197 194 218 182 140 202 207 197 187 213 209
162 165 167 163 165 161 166 164 161 163 164 158 159 172 169 186 153 180 178 181 176 178 163 165 163 162 177 193 170 189 174 175 193 157 182 186 187 215 190 159 202 204
167 162 166 165 167 166 164 172 162 169 164 165 160 168 168 165 167 183 179 179 178 180 162 169 160 176 178 181 164 170 197 172 191 184 180 203 158 21 5 200 186 210
155 161 159 166 163 167 166 169 166 168 168 165 163 168 159 176 174 170 186 172 182 180 164 171 175 162 173 171 164 182 173 186 203 159 193 175 146 203 203 180 190 225
116 124 142 147 169 170 161 174 171 166 167 159 162 163 166 177 170 168 183 177 181 173 162 168 157 171 163 181 167 180 176 176 181 209 190 187 197 200 178 243 180 213
111 59 110 157 172 177 172 176 162 160 163 154 161 157 168 170 168 166 171 194 148 166 151 126 138 162 126 106 211 169 179 170 189 203 205 184 223 212 151 319 302 160
127 98 63 186 169 165 167 164 156 155 154 148 147 154 163 155 157 153 163 150 150 148 138 135 71 42 34 3 354 11 176 174 197 202 214 197 207 213 193 226 177 164
111 112 174 172 152 170 165 158 164 156 142 141 144 148 149 142 147 147 137 139 137 132 112 58 45 47 7 8 8 353 326 198 160 230 212 226 210 208 199 223 187 94
145 169 173 162 154 156 154 153 147 141 142 143 147 150 147 150 147 154 159 156 139 110 76 61 44 16 356 360 351 357 346 345 173 202 212 210 215 236 199 204 219 126
155 173 166 154 156 147 140 131 127 123 111 102 98 108 124 133 117 80 68 63 71 73 70 67 60 18 1 3 352 347 352 333 301 143 216 216 206 214 207 196 204 169
73 67 63 65 70 79 83 98 91 94 93 90 81 69 74 103 98 81 76 70 76 85 76 62 65 17 3 8 355 341 340 333 287 172 209 212 207 244 287 195 188 183
64 71 64 51 67 72 69 66 67 70 76 76 82 75 64 62 72 83 84 77 80 87 80 66 44 4 5 7 5 348 338 336 292 160 270 166 197 227 155 256 274 261
60 61 58 53 59 66 75 75 68 60 59 57 58 55 63 64 69 86 101 119 106 91 89 69 43 11 15 13 7 355 342 314 298 293 251 195 209 191 223 249 241 269
68 67 71 66 64 64 63 59 58 59 50 44 69 78 80 92 94 99 110 107 101 95 93 74 49 22 15 16 9 359 335 283 247 234 269 290 252 246 254 240 237 235
53 61 68 74 72 77 76 70 65 63 66 66 70 72 71 68 66 60 59 80 91 91 83 79 58 24 19 16 12 4 348 340 329 262 231 220 235 231 243 243 236 13
59 55 52 52 66 72 72 69 65 61 59 58 86 88 81 72 75 65 45 39 46 54 59 77 64 37 28 19 13 8 354 333 322 283 260 289 254 221 262 259 84 59
52 57 50 43 53 62 74 79 76 77 80 59 48 98 110 118 116 106 93 76 62 68 54 87 85 52 36 27 15 14 4 338 328 314 299 307 313 299 260 275 103 55
44 50 60 58 46 53 62 69 76 71 62 84 144 132 121 131 136 122 121 117 135 135 105 85 92 74 47 38 23 14 7 346 329 340 344 351 320 317 320 309 107 108